Theta_e
315 327 325 330 335 336 338 337 335 336 337 335 334 334 335 340 338 347 337 336 338 343 332 326 325 339 340 334 331 334 334 336 337 337 334 327 320 317 315 312 311 310 309 309 308 309 309 309 311
327 325 325 335 339 340 337 335 336 336 336 335 333 337 338 343 341 341 339 339 341 339 329 339 335 338 336 326 329 334 336 335 333 328 323 318 315 311 309 308 308 308 308 308 308 308 308 308 308
316 323 329 334 337 340 338 334 335 337 336 335 338 340 341 344 340 338 338 341 340 334 342 339 334 333 326 333 336 336 332 329 326 322 316 312 309 308 308 308 308 308 308 308 308 308 308 308 308
322 321 327 334 334 337 336 335 334 340 336 336 338 342 342 341 339 339 338 340 339 334 341 335 331 323 332 337 336 331 328 324 317 314 309 308 308 308 308 308 308 308 309 309 308 308 308 308 308
323 321 324 329 333 334 335 333 334 339 338 338 338 342 341 340 338 338 338 337 335 333 337 329 326 332 337 336 332 328 322 316 312 309 308 308 308 308 308 309 308 308 308 308 308 308 308 308 308
321 321 322 327 328 331 335 332 334 338 337 338 339 342 340 339 337 338 337 335 330 335 335 326 332 337 337 333 329 325 318 313 309 309 308 308 308 309 308 308 308 308 308 308 308 308 308 308 308
322 319 322 322 327 330 334 332 336 338 338 339 340 342 340 339 338 337 335 330 333 335 335 335 337 338 334 330 328 322 315 309 309 309 308 308 308 308 308 308 308 308 308 308 308 308 308 308 309
320 321 319 321 325 330 332 331 336 338 340 339 340 343 340 340 338 335 330 332 334 336 337 338 338 335 332 330 327 320 310 309 309 308 308 308 308 309 308 308 308 307 307 307 308 308 308 309 309
321 322 322 319 322 327 329 332 335 338 341 340 341 341 339 340 336 331 331 334 335 337 339 336 336 334 331 329 324 316 309 309 309 308 308 309 309 308 308 308 308 307 307 307 308 309 309 309 310
320 320 318 318 321 324 328 331 336 339 341 341 340 341 339 338 333 331 334 334 340 338 338 334 335 333 330 328 323 312 309 309 309 308 308 309 309 308 308 308 308 308 307 308 308 309 309 310 311
318 320 317 320 322 321 323 329 336 338 341 341 340 342 339 336 332 333 337 338 336 337 334 334 334 332 330 328 320 310 309 309 309 308 309 309 308 308 308 308 308 307 307 308 308 311 310 310 310
319 317 319 320 321 321 322 325 332 337 336 339 341 341 338 334 333 335 339 336 337 337 333 336 333 332 329 326 318 310 309 309 309 308 309 309 308 308 308 308 308 307 307 307 308 309 310 310 310
320 317 317 318 320 320 320 322 329 335 337 337 341 340 337 335 335 335 338 336 338 336 336 335 335 332 330 326 319 310 309 309 309 308 309 308 308 308 308 308 308 307 307 307 307 308 309 311 311
318 319 317 317 318 319 320 322 324 331 336 338 341 340 338 336 336 336 338 337 338 335 334 334 334 334 330 328 321 311 309 309 309 308 308 308 308 308 308 308 307 307 307 306 306 307 310 311 312
319 319 319 317 317 319 318 322 326 331 336 339 340 340 338 336 335 337 337 339 336 334 333 333 333 334 330 329 323 313 310 310 310 309 308 308 308 308 308 307 307 307 307 306 306 306 309 311 313
318 320 320 318 316 318 317 321 322 331 335 338 340 338 339 337 336 336 339 339 335 333 334 333 333 333 331 330 324 315 311 310 310 309 308 308 308 308 308 307 307 307 307 307 305 306 306 308 311
319 320 320 318 316 317 319 319 322 331 333 336 338 338 337 337 337 337 338 337 334 334 334 334 333 331 330 329 325 318 312 311 311 310 308 308 308 308 307 307 307 306 306 307 306 305 305 306 308
320 320 319 319 317 316 318 319 325 330 332 334 335 337 336 337 337 337 338 335 335 335 335 335 333 330 329 328 325 320 314 312 311 310 308 308 308 308 307 307 306 305 306 308 306 305 305 306 305
318 320 319 319 317 315 316 318 319 326 329 331 333 334 336 335 335 337 337 334 335 335 334 334 334 332 328 327 325 323 317 314 312 311 309 308 308 308 307 307 306 305 306 307 307 306 307 307 304
318 318 319 318 316 315 315 316 318 322 328 330 333 332 333 334 334 337 334 336 334 333 333 334 334 333 329 328 324 326 319 316 313 312 309 308 308 308 307 307 305 304 305 307 307 306 306 310 306
317 318 318 319 316 316 316 315 316 318 322 328 330 332 332 332 335 336 333 337 334 332 332 333 332 334 330 328 327 326 323 318 314 312 309 308 308 308 307 306 305 304 304 305 305 306 306 306 310
318 317 317 318 318 321 316 318 316 318 322 326 328 329 330 333 335 336 333 332 334 333 331 331 330 334 331 327 326 327 324 318 315 312 309 308 308 307 307 306 304 303 304 304 304 305 305 306 309
317 313 315 317 319 319 320 321 317 316 318 322 326 328 329 331 334 335 334 332 332 332 331 330 330 331 328 327 326 326 321 317 315 311 308 308 308 307 307 305 303 304 304 304 303 304 304 305 306
312 312 315 316 319 322 318 320 321 317 316 319 321 326 330 331 333 333 334 333 331 330 331 330 329 329 328 326 327 324 320 316 312 309 308 308 308 307 305 303 304 304 304 304 304 303 303 303 304
312 316 321 322 323 320 313 319 321 318 318 318 320 324 330 332 333 334 334 334 332 329 331 330 329 329 327 327 326 323 318 313 310 309 308 308 307 306 303 304 304 304 304 304 304 304 303 303 303
314 317 323 321 321 319 313 319 319 318 318 317 318 321 328 331 332 333 333 332 331 330 331 331 330 328 328 325 322 317 313 310 309 309 308 307 306 303 304 304 304 304 304 303 303 303 303 303 303
316 316 315 315 314 317 318 316 316 316 316 315 316 319 324 327 328 330 330 331 331 329 330 330 329 327 326 324 320 314 310 309 308 308 308 306 303 303 304 304 303 303 302 302 302 302 302 303 303
313 312 316 317 320 318 316 316 321 318 316 316 315 315 316 322 325 325 327 329 329 328 328 328 329 327 326 323 320 313 310 309 308 308 306 303 303 304 303 302 302 302 302 302 302 302 302 302 303
313 315 313 313 317 317 316 318 318 320 318 317 317 316 315 315 315 318 322 326 328 327 325 327 326 326 324 322 318 313 310 308 308 306 303 303 303 303 302 302 301 301 301 300 300 301 301 301 301
313 316 316 318 317 315 314 318 314 312 313 313 313 312 312 312 313 312 315 323 324 323 323 326 325 323 323 321 316 313 309 308 307 304 303 303 302 302 301 300 300 299 299 299 299 299 299 299 299
Wind_Speed
13 8 5 3 3 7 16 19 8 8 5 6 13 3 7 11 1 4 18 16 21 19 18 17 17 16 15 14 12 11 9 7 5 3 4 6 6 6 6 6 7 7 7 8 8 8 9 10 10
7 6 5 7 8 14 15 19 13 12 7 10 11 6 7 6 7 17 19 20 21 20 17 17 17 16 14 13 12 9 8 5 2 2 4 6 7 7 7 7 7 7 7 7 8 9 9 10 11
9 8 11 5 10 20 16 20 12 7 11 17 9 0 5 6 10 21 19 23 22 20 16 20 17 14 14 12 11 9 5 2 1 3 4 5 6 6 7 7 7 8 8 9 9 9 10 11 12
6 9 10 13 20 23 25 10 17 13 14 14 10 8 8 3 20 15 25 23 20 19 15 19 16 15 14 12 9 6 3 2 2 3 4 5 6 7 7 8 8 8 9 10 11 11 12 12 13
10 12 11 18 23 20 23 8 10 16 15 15 14 8 11 13 12 26 24 22 20 20 17 20 17 15 13 10 7 4 2 2 2 3 4 5 6 6 7 8 9 10 10 11 12 12 13 13 13
12 15 12 20 25 24 19 9 14 18 17 17 12 16 10 10 21 24 23 21 20 19 19 20 18 15 12 9 6 4 2 2 3 4 5 6 7 8 8 9 10 11 12 12 13 14 14 14 14
15 12 19 21 21 22 18 11 15 17 15 19 15 14 10 15 24 23 22 21 20 19 19 19 18 15 12 9 6 4 2 2 3 4 6 7 7 9 9 10 11 12 12 12 13 14 15 14 14
17 11 22 21 20 23 19 16 15 16 15 16 18 8 10 23 27 24 22 22 20 21 21 20 18 15 12 8 5 3 2 2 3 5 7 7 8 9 10 11 12 12 13 14 15 15 15 15 14
8 8 14 23 21 18 20 14 6 10 17 11 10 6 17 32 29 26 25 24 24 23 22 19 17 15 12 8 6 3 1 2 4 5 7 8 9 10 11 11 12 13 14 15 16 15 14 14 16
11 10 15 14 14 16 13 17 13 8 13 14 11 13 28 33 31 30 29 31 26 25 19 18 17 14 11 8 6 4 2 2 4 6 7 7 8 9 10 12 13 13 15 15 15 15 17 16 11
11 13 11 3 10 10 12 11 13 10 16 16 22 27 32 32 30 29 28 31 30 24 19 19 17 14 10 8 6 5 3 1 3 5 6 7 9 10 12 12 14 15 16 14 15 14 15 14 13
7 11 14 1 5 10 10 10 16 16 14 13 19 27 36 34 32 30 31 32 30 22 20 20 16 14 11 9 6 5 3 0 2 4 6 7 8 9 10 11 13 14 14 15 15 14 13 13 12
8 11 10 13 9 12 12 13 13 17 8 6 19 27 32 31 30 30 28 28 26 23 22 20 17 15 12 9 7 6 4 1 2 3 5 6 7 8 9 11 12 13 14 14 14 14 13 12 11
8 7 13 13 16 12 12 12 9 14 6 14 19 26 30 29 29 31 30 33 24 24 21 19 17 14 12 10 8 7 4 2 1 3 5 5 6 8 9 11 12 13 14 14 13 13 12 11 9
7 10 11 16 19 13 11 13 12 7 10 20 27 24 29 28 26 30 32 28 25 24 22 20 18 16 13 10 9 7 5 3 2 3 5 5 6 8 9 11 13 14 13 13 12 12 10 9 8
7 12 11 13 20 18 4 17 17 10 12 20 25 27 20 27 30 27 28 25 25 31 28 26 23 20 16 12 10 8 6 5 4 4 5 5 5 7 9 11 13 14 13 12 11 11 10 10 7
5 9 10 8 14 15 15 13 11 9 11 13 20 20 28 23 28 28 25 24 30 29 26 24 22 19 16 14 11 9 8 6 5 5 5 5 6 6 9 11 13 13 12 11 11 10 11 11 9
8 9 9 9 10 18 19 16 5 6 10 14 15 18 22 29 29 27 25 25 29 28 26 24 22 19 17 15 12 10 9 8 7 6 6 6 6 7 9 11 13 12 10 9 10 10 10 10 11
8 7 10 15 2 11 23 20 19 9 9 13 16 18 21 23 31 32 27 29 29 28 26 24 22 21 19 15 12 11 10 10 9 8 8 7 7 7 9 11 11 10 9 9 9 10 9 10 11
8 9 12 10 4 7 17 24 20 10 10 17 16 18 19 17 21 33 27 30 30 28 27 25 23 21 20 17 12 11 10 11 11 10 10 9 8 7 9 10 9 8 8 8 8 9 9 8 11
10 11 11 7 4 10 11 20 23 19 13 14 17 18 17 21 30 33 28 34 32 31 29 26 24 22 20 18 13 15 15 14 13 13 12 10 9 8 9 10 8 8 7 7 8 8 8 7 8
9 6 11 10 6 7 11 9 21 23 15 14 19 21 23 26 29 30 27 30 36 32 28 27 25 24 22 19 17 18 16 14 13 13 12 11 10 10 10 9 8 8 8 7 7 7 7 7 5
7 5 8 10 9 9 12 7 19 22 24 19 19 24 28 30 31 32 32 29 29 31 32 29 27 26 24 22 20 19 18 14 16 14 13 12 11 11 10 9 9 8 7 7 7 7 6 6 6
5 7 5 3 4 6 15 11 10 17 25 24 21 24 25 30 30 29 29 26 25 28 31 30 31 28 26 24 22 22 19 17 16 14 12 12 12 12 10 10 10 9 9 8 8 7 7 6 7
8 7 3 4 5 7 2 4 14 11 17 20 22 24 25 27 28 29 30 30 28 30 32 32 32 31 28 26 24 22 21 18 15 14 13 13 12 12 12 11 10 10 9 9 8 8 8 8 7
10 7 3 6 5 8 6 8 11 11 18 7 16 26 26 27 28 30 29 30 31 34 33 32 34 32 28 27 24 23 22 19 17 17 15 14 13 13 13 11 11 11 10 10 9 8 8 8 8
6 7 2 6 3 4 8 13 18 9 9 11 15 11 18 28 28 27 27 29 29 33 35 36 35 32 30 28 25 24 22 20 18 17 16 15 14 13 12 11 10 10 9 8 8 8 7 7 7
7 4 4 4 4 6 8 11 6 7 15 15 13 17 21 20 23 25 27 30 31 33 34 36 35 33 31 29 27 24 21 19 19 18 17 15 13 12 11 10 9 9 8 7 6 6 5 6 6
7 5 7 3 7 5 6 4 2 6 13 12 13 18 15 15 17 21 25 26 28 29 34 36 34 33 33 30 27 24 22 21 20 18 16 14 13 12 11 9 8 7 6 5 5 4 4 4 4
11 16 16 7 7 6 6 8 5 3 4 2 3 2 5 9 14 19 24 24 26 28 31 35 36 36 34 30 28 25 23 22 20 18 16 15 14 12 11 9 8 6 5 4 3 3 3 3 3
Wind_Direction
242 266 266 249 246 230 237 231 214 208 179 145 152 148 167 15 186 73 135 147 144 162 153 145 141 140 143 143 137 131 128 120 108 87 18 354 358 359 355 346 339 332 328 326 323 318 312 309 305
230 247 220 239 227 233 227 240 187 221 144 157 138 135 154 93 74 132 138 147 147 144 144 155 150 152 146 143 140 133 128 119 94 353 351 353 353 349 346 344 341 338 335 330 327 322 317 311 306
213 218 219 217 224 219 231 214 177 157 140 158 140 360 112 97 124 138 147 146 146 143 157 158 153 153 150 145 139 136 125 102 25 349 351 351 350 348 347 345 345 342 338 334 328 325 322 318 314
205 204 252 234 223 223 236 209 200 144 172 178 162 120 96 112 141 148 146 149 150 147 166 158 156 157 152 149 144 137 121 86 33 7 354 357 356 355 353 350 347 346 342 337 332 332 332 327 321
208 219 225 224 229 229 225 142 183 171 174 182 179 132 110 129 156 142 151 153 154 151 166 157 159 159 156 155 149 137 123 79 27 11 7 10 7 3 359 355 353 352 353 349 344 343 341 336 332
211 225 217 226 219 229 223 143 205 193 177 171 180 131 137 168 148 147 153 153 153 153 153 156 162 162 161 161 154 145 125 79 37 28 20 14 6 4 7 7 5 359 359 355 350 350 347 345 343
231 217 233 231 229 223 210 164 210 199 175 166 160 147 141 159 153 153 153 153 153 155 151 157 168 168 167 167 161 154 138 75 48 32 22 14 16 15 11 11 9 4 2 0 359 360 356 354 356
225 254 236 243 220 221 194 186 220 201 192 171 170 166 167 168 157 155 154 154 154 157 169 166 172 174 172 171 171 166 137 90 51 30 22 22 20 20 18 13 13 13 8 8 8 7 3 3 4
227 233 229 225 236 224 205 195 218 208 151 162 183 164 163 157 159 156 155 159 168 163 167 169 171 175 176 173 171 166 138 66 37 30 28 25 21 17 21 20 17 17 14 13 12 12 11 7 11
220 228 229 230 220 263 248 207 190 187 175 176 157 127 148 157 162 162 166 166 168 168 165 168 175 179 178 178 178 171 159 60 30 27 26 22 21 22 21 26 21 19 16 20 14 16 18 18 12
216 243 245 292 2 335 301 251 184 223 197 191 178 154 157 162 167 170 169 170 171 168 169 173 179 180 183 186 184 180 173 106 38 27 25 22 23 24 23 18 19 19 17 16 16 15 9 14 12
250 229 265 281 331 334 312 301 221 223 210 217 182 169 163 169 172 177 172 173 169 171 175 178 181 181 186 188 185 190 192 127 23 24 22 25 28 25 23 19 18 18 17 14 15 17 10 14 14
232 259 240 250 272 297 302 270 250 222 215 199 165 171 172 173 175 179 173 175 173 174 185 186 188 192 193 194 196 194 196 215 358 11 20 24 25 24 20 20 17 17 15 13 14 14 14 13 20
325 278 249 246 249 276 289 287 226 233 189 169 167 178 175 179 179 175 178 180 181 184 185 189 194 200 200 203 205 208 212 227 311 353 11 15 18 19 19 18 15 13 12 12 13 12 13 11 22
297 279 228 234 239 242 307 267 227 212 179 175 175 189 177 184 183 182 181 182 184 184 189 193 198 202 205 210 213 216 223 241 286 334 354 359 3 9 11 12 11 6 6 9 11 13 16 13 26
254 248 260 227 220 224 245 250 219 188 191 191 188 178 181 187 189 185 182 185 185 188 193 197 196 200 204 209 216 223 228 244 276 315 331 340 349 357 2 5 1 359 2 6 10 8 16 14 18
261 268 251 229 207 213 214 243 229 179 200 207 192 190 182 190 188 190 189 192 196 196 198 200 204 204 207 211 216 225 234 249 274 295 308 322 329 345 354 355 352 356 360 3 7 6 10 10 6
260 255 275 265 197 227 223 233 173 198 219 210 209 195 184 188 196 188 193 199 199 202 205 206 207 209 212 215 219 228 238 250 267 281 292 301 315 332 341 345 348 353 358 354 359 3 9 5 2
287 259 262 269 194 234 223 229 237 192 213 230 207 202 190 197 200 189 200 198 201 206 210 208 212 216 215 216 221 238 247 255 263 270 279 291 302 314 329 338 343 345 347 349 356 2 4 1 8
257 273 263 259 260 249 239 227 234 210 226 227 209 202 200 189 203 194 203 198 202 211 211 211 215 221 219 218 218 242 246 257 262 271 275 281 284 300 319 328 330 334 340 337 344 354 8 0 2
231 243 266 255 294 251 264 237 229 234 229 215 224 212 204 190 207 202 201 201 204 208 214 214 221 225 219 223 229 245 252 259 262 268 270 270 275 292 307 316 318 323 325 326 333 342 354 1 1
254 250 253 273 289 249 214 237 226 229 211 215 212 210 206 201 205 199 200 200 208 211 217 219 224 224 220 223 232 242 249 255 264 262 260 269 273 285 299 302 304 311 317 318 320 326 334 344 350
239 318 263 241 260 286 248 245 250 219 225 215 216 213 211 208 203 203 203 200 206 211 216 218 223 224 227 229 236 238 239 242 247 251 259 262 271 280 289 290 297 301 301 301 305 311 318 318 328
310 264 203 211 244 246 240 225 250 237 219 219 220 212 209 206 207 207 204 202 205 211 218 218 220 222 223 228 230 234 237 238 245 250 251 257 265 278 279 284 288 288 290 292 297 299 299 298 296
224 235 177 207 207 241 87 217 244 247 222 232 225 208 207 201 200 202 203 200 200 207 214 216 221 220 219 224 226 233 237 238 244 243 241 249 262 269 274 280 283 284 285 285 283 284 287 288 289
212 224 259 241 214 234 170 242 236 246 246 250 264 215 204 203 201 202 203 202 204 214 216 215 219 217 219 221 226 232 235 237 238 237 241 248 253 260 274 276 277 279 281 280 280 281 279 279 284
206 228 306 301 235 269 220 241 257 247 236 224 230 227 214 206 209 207 206 206 205 214 215 215 214 218 220 221 224 229 233 237 237 239 242 246 251 261 264 267 270 273 275 277 275 269 272 275 279
247 349 209 214 260 251 253 246 250 254 224 221 217 210 222 219 216 212 212 210 210 214 218 216 216 217 220 219 223 227 233 235 235 236 240 245 252 252 255 258 260 264 266 266 263 265 268 268 276
194 225 219 272 245 272 287 285 163 256 252 236 210 208 207 210 216 218 218 215 212 209 214 213 212 213 217 217 220 224 230 232 232 235 238 241 244 245 245 244 243 244 246 248 250 255 266 267 275
265 229 225 229 216 238 283 264 295 287 309 234 290 260 219 222 223 222 213 208 209 207 212 213 212 212 216 217 220 223 227 228 230 232 235 234 234 232 231 229 229 229 228 228 235 250 264 274 282